TimeCDT,TemperatureF,Dew PointF,Humidity,Sea Level PressureIn,VisibilityMPH,Wind Direction,Wind SpeedMPH,Gust SpeedMPH,PrecipitationIn,Events,Conditions,WindDirDegrees,DateUTC
12:15 AM,78.6,63.5,60,29.87,10.0,South,9.2,-,N/A,,Clear,180,2013-07-07 05:15:00
12:35 AM,78.8,63.5,59,29.87,10.0,South,10.4,-,N/A,,Mostly Cloudy,180,2013-07-07 05:35:00
12:55 AM,78.8,63.5,59,29.86,10.0,South,10.4,-,N/A,,Scattered Clouds,190,2013-07-07 05:55:00
1:15 AM,78.8,63.0,58,29.86,10.0,South,10.4,-,N/A,,Scattered Clouds,190,2013-07-07 06:15:00
1:35 AM,78.8,63.1,59,29.86,10.0,South,10.4,-,N/A,,Clear,180,2013-07-07 06:35:00
1:55 AM,78.8,63.1,59,29.86,10.0,South,11.5,-,N/A,,Scattered Clouds,180,2013-07-07 06:55:00
2:15 AM,78.3,63.3,60,29.86,10.0,South,10.4,-,N/A,,Scattered Clouds,190,2013-07-07 07:15:00
2:35 AM,78.1,63.5,61,29.86,10.0,South,9.2,-,N/A,,Mostly Cloudy,190,2013-07-07 07:35:00
2:55 AM,77.9,63.5,61,29.86,10.0,South,9.2,-,N/A,,Scattered Clouds,190,2013-07-07 07:55:00
3:15 AM,77.5,63.5,62,29.86,10.0,South,9.2,-,N/A,,Clear,180,2013-07-07 08:15:00
3:35 AM,77.0,63.7,63,29.86,10.0,South,8.1,-,N/A,,Clear,180,2013-07-07 08:35:00
3:55 AM,76.6,63.7,64,29.86,10.0,South,6.9,-,N/A,,Clear,190,2013-07-07 08:55:00
4:15 AM,76.3,63.9,65,29.86,10.0,South,6.9,-,N/A,,Clear,190,2013-07-07 09:15:00
4:35 AM,75.6,64.2,68,29.86,10.0,South,5.8,-,N/A,,Clear,170,2013-07-07 09:35:00
4:55 AM,75.2,64.4,69,29.86,10.0,South,6.9,-,N/A,,Scattered Clouds,190,2013-07-07 09:55:00
5:15 AM,75.4,64.2,68,29.86,10.0,South,5.8,-,N/A,,Mostly Cloudy,190,2013-07-07 10:15:00
5:35 AM,75.2,64.2,69,29.86,10.0,South,6.9,-,N/A,,Overcast,190,2013-07-07 10:35:00
5:55 AM,75.2,63.9,68,29.87,10.0,SSW,8.1,-,N/A,,Mostly Cloudy,200,2013-07-07 10:55:00
6:15 AM,75.0,64.4,69,29.87,10.0,SSW,5.8,-,N/A,,Scattered Clouds,200,2013-07-07 11:15:00
6:35 AM,75.0,64.4,69,29.86,10.0,SSW,5.8,-,N/A,,Scattered Clouds,200,2013-07-07 11:35:00
6:55 AM,75.0,64.6,70,29.86,10.0,South,5.8,-,N/A,,Scattered Clouds,180,2013-07-07 11:55:00
7:15 AM,75.2,64.6,69,29.86,10.0,South,6.9,-,N/A,,Clear,190,2013-07-07 12:15:00
7:35 AM,75.6,64.9,69,29.87,10.0,South,5.8,-,N/A,,Mostly Cloudy,190,2013-07-07 12:35:00
7:55 AM,76.1,65.5,70,29.87,10.0,SSW,4.6,-,N/A,,Scattered Clouds,200,2013-07-07 12:55:00
8:15 AM,77.0,65.3,67,29.87,10.0,SSW,5.8,-,N/A,,Scattered Clouds,210,2013-07-07 13:15:00
8:35 AM,77.9,65.1,65,29.88,10.0,SSW,8.1,-,N/A,,Scattered Clouds,200,2013-07-07 13:35:00
8:55 AM,77.4,64.8,65,29.88,10.0,SSW,9.2,-,N/A,,Scattered Clouds,210,2013-07-07 13:55:00
9:15 AM,77.9,65.1,65,29.88,10.0,SSW,5.8,-,N/A,,Mostly Cloudy,210,2013-07-07 14:15:00
9:35 AM,77.9,65.3,65,29.88,10.0,SSW,9.2,-,N/A,,Scattered Clouds,200,2013-07-07 14:35:00
9:55 AM,80.1,65.8,62,29.87,10.0,SSW,8.1,-,N/A,,Clear,210,2013-07-07 14:55:00
10:15 AM,80.1,65.1,60,29.88,10.0,SW,8.1,-,N/A,,Mostly Cloudy,220,2013-07-07 15:15:00
10:35 AM,81.5,66.2,60,29.87,10.0,SSW,6.9,-,N/A,,Mostly Cloudy,210,2013-07-07 15:35:00
10:55 AM,81.5,66.4,60,29.87,10.0,SSW,5.8,-,N/A,,Scattered Clouds,200,2013-07-07 15:55:00
11:15 AM,82.4,66.6,59,29.87,10.0,South,4.6,-,N/A,,Mostly Cloudy,190,2013-07-07 16:15:00
11:35 AM,83.1,67.5,59,29.87,10.0,South,5.8,-,N/A,,Scattered Clouds,190,2013-07-07 16:35:00
11:55 AM,83.7,67.3,58,29.87,10.0,South,4.6,-,N/A,,Scattered Clouds,190,2013-07-07 16:55:00
12:15 PM,83.8,66.7,56,29.87,10.0,South,6.9,-,N/A,,Clear,190,2013-07-07 17:15:00
12:35 PM,84.9,68.0,57,29.86,10.0,South,6.9,-,N/A,,Clear,190,2013-07-07 17:35:00
12:55 PM,84.7,67.1,55,29.87,10.0,SSE,6.9,-,N/A,,Clear,160,2013-07-07 17:55:00
1:15 PM,85.3,67.6,55,29.87,10.0,SSW,8.1,-,N/A,,Scattered Clouds,210,2013-07-07 18:15:00
1:35 PM,86.2,67.6,54,29.87,10.0,South,9.2,-,N/A,,Mostly Cloudy,170,2013-07-07 18:35:00
1:55 PM,86.9,67.6,53,29.87,10.0,SSW,10.4,-,N/A,,Scattered Clouds,210,2013-07-07 18:55:00
2:15 PM,86.9,66.7,51,29.87,10.0,SSW,8.1,-,N/A,,Scattered Clouds,210,2013-07-07 19:15:00
2:35 PM,86.9,66.9,51,29.87,10.0,SSW,6.9,-,N/A,,Mostly Cloudy,210,2013-07-07 19:35:00
2:55 PM,86.9,67.3,52,29.87,10.0,SSW,5.8,-,N/A,,Mostly Cloudy,210,2013-07-07 19:55:00
3:15 PM,86.2,67.3,53,29.87,10.0,South,5.8,-,N/A,,Mostly Cloudy,190,2013-07-07 20:15:00
3:35 PM,87.1,67.8,53,29.86,10.0,SW,5.8,-,N/A,,Scattered Clouds,220,2013-07-07 20:35:00
3:55 PM,87.1,67.6,52,29.87,10.0,South,6.9,-,N/A,,Scattered Clouds,180,2013-07-07 20:55:00
4:15 PM,86.4,67.1,52,29.86,10.0,SSW,8.1,-,N/A,,Scattered Clouds,210,2013-07-07 21:15:00
4:35 PM,87.1,67.3,52,29.86,10.0,SSW,8.1,-,N/A,,Scattered Clouds,210,2013-07-07 21:35:00
4:55 PM,86.2,67.5,53,29.86,10.0,South,5.8,-,N/A,,Mostly Cloudy,190,2013-07-07 21:55:00
5:15 PM,86.4,67.8,54,29.86,10.0,South,3.5,-,N/A,,Scattered Clouds,190,2013-07-07 22:15:00
5:35 PM,85.1,67.1,55,29.85,10.0,SSW,6.9,-,N/A,,Clear,200,2013-07-07 22:35:00
5:55 PM,84.2,68.7,60,29.85,10.0,SW,4.6,-,N/A,,Clear,220,2013-07-07 22:55:00
6:15 PM,83.8,68.5,60,29.85,10.0,Calm,Calm,-,N/A,,Clear,0,2013-07-07 23:15:00
6:35 PM,83.5,68.7,61,29.85,10.0,SSE,4.6,-,N/A,,Scattered Clouds,160,2013-07-07 23:35:00
6:55 PM,82.8,68.9,63,29.85,10.0,Calm,Calm,-,N/A,,Clear,0,2013-07-07 23:55:00
7:15 PM,81.7,70.0,68,29.85,10.0,Calm,Calm,-,N/A,,Scattered Clouds,0,2013-07-08 00:15:00
7:35 PM,81.3,70.2,69,29.87,10.0,Calm,Calm,-,N/A,,Mostly Cloudy,0,2013-07-08 00:35:00
7:55 PM,75.9,69.1,79,29.89,10.0,NW,11.5,21.9,N/A,Rain,Light Rain,310,2013-07-08 00:55:00
8:15 PM,72.5,70.7,94,29.89,10.0,NW,10.4,-,N/A,Rain,Light Rain,310,2013-07-08 01:15:00
8:35 PM,72.5,71.2,96,29.89,10.0,NNW,5.8,-,N/A,Rain,Light Rain,340,2013-07-08 01:35:00
8:55 PM,72.9,71.6,96,29.90,10.0,NNW,8.1,-,N/A,,Scattered Clouds,330,2013-07-08 01:55:00
9:15 PM,73.4,71.6,94,29.89,10.0,NNE,4.6,-,N/A,Rain,Light Rain,20,2013-07-08 02:15:00
9:35 PM,72.9,71.6,96,29.89,7.0,SE,3.5,-,0.02,Rain,Light Rain,140,2013-07-08 02:35:00
9:55 PM,72.7,71.6,96,29.87,7.0,ENE,6.9,-,0.03,Rain,Light Rain,70,2013-07-08 02:55:00
10:15 PM,72.5,71.6,97,29.86,7.0,Calm,Calm,-,N/A,,Clear,0,2013-07-08 03:15:00
10:35 PM,72.1,71.6,98,29.87,5.0,NW,5.8,-,N/A,,Clear,320,2013-07-08 03:35:00
10:55 PM,71.6,71.2,99,29.88,4.0,North,4.6,-,N/A,,Clear,10,2013-07-08 03:55:00
11:15 PM,71.6,71.1,98,29.89,4.0,NNW,5.8,-,N/A,,Clear,340,2013-07-08 04:15:00
11:35 PM,71.8,71.6,99,29.90,4.0,NNW,6.9,-,N/A,,Mostly Cloudy,330,2013-07-08 04:35:00
11:55 PM,72.5,72.5,100,29.89,3.0,North,8.1,-,N/A,,Overcast,360,2013-07-08 04:55:00